KE5CJ Weather Reports


time (UTC)temp
C
wind
direction
speed
KPH
gust
KPH
rain 1hr
cm
rain 24hr
cm
rain mn
cm
humidity
%
barometer
mb
20260906210016 35 190 1.6 16.1 0.00 0.00 0.00 32 1011.8
20260906204512 35 190 8.0 25.7 0.00 0.00 0.00 32 1012.0
20260906203011 36 190 8.0 17.7 0.00 0.00 0.00 31 1012.2
20260906201527 36 190 16.1 25.7 0.00 0.00 0.00 31 1012.1
20260906200005 35 190 6.4 19.3 0.00 0.00 0.00 34 1012.0
20260906194502 35 190 4.8 19.3 0.00 0.00 0.00 34 1012.4
20260906193002 35 190 9.7 22.5 0.00 0.00 0.00 33 1012.8
20260906191609 35 190 8.0 24.1 0.00 0.00 0.00 32 1013.0
20260906190058 35 190 6.4 19.3 0.00 0.00 0.00 34 1013.0
20260906184556 33 190 6.4 19.3 0.00 0.00 0.00 35 1013.3
20260906183054 33 190 4.8 20.9 0.00 0.00 0.00 36 1013.6
20260906181552 33 190 11.3 17.7 0.00 0.00 0.00 37 1013.9
20260906180107 33 190 9.7 24.1 0.00 0.00 0.00 38 1014.2
20260906174558 33 190 6.4 22.5 0.00 0.00 0.00 38 1014.4
20260906173056 33 190 6.4 20.9 0.00 0.00 0.00 38 1014.4
20260906171545 32 190 9.7 17.7 0.00 0.00 0.00 41 1014.6
20260906170047 32 190 8.0 17.7 0.00 0.00 0.00 41 1014.7
20260906164541 32 190 9.7 19.3 0.00 0.00 0.00 43 1014.8
20260906163038 31 190 9.7 19.3 0.00 0.00 0.00 46 1014.9
20260906161535 30 190 9.7 19.3 0.00 0.00 0.00 47 1014.9
20260906160033 30 190 8.0 14.5 0.00 0.00 0.00 48 1014.8
20260906154532 29 190 8.0 16.1 0.00 0.00 0.00 49 1014.8
20260906153034 29 190 8.0 14.5 0.00 0.00 0.00 49 1014.7
20260906151524 28 190 4.8 16.1 0.00 0.00 0.00 50 1014.5
20260906150023 28 190 8.0 12.9 0.00 0.00 0.00 51 1014.4
20260906144520 27 190 8.0 17.7 0.00 0.00 0.00 52 1014.3
20260906143021 27 190 9.7 14.5 0.00 0.00 0.00 53 1014.4
20260906141518 27 190 6.4 16.1 0.00 0.00 0.00 54 1014.3
20260906140020 26 190 9.7 17.7 0.00 0.00 0.00 55 1014.2
20260906134515 26 190 9.7 16.1 0.00 0.00 0.00 56 1014.1
20260906133023 25 190 8.0 12.9 0.00 0.00 0.00 57 1014.0
20260906131518 25 190 6.4 11.3 0.00 0.00 0.00 57 1013.9
20260906130010 25 190 4.8 8.0 0.00 0.00 0.00 57 1013.7
20260906124509 25 190 4.8 9.7 0.00 0.00 0.00 56 1013.5
20260906123016 25 190 3.2 8.0 0.00 0.00 0.00 55 1013.3
20260906121508 25 190 4.8 11.3 0.00 0.00 0.00 55 1013.3
20260906120006 25 190 3.2 8.0 0.00 0.00 0.00 55 1013.2
20260906114505 25 190 4.8 9.7 0.00 0.00 0.00 55 1013.1
20260906113005 25 190 4.8 11.3 0.00 0.00 0.00 56 1013.1
20260906111505 25 190 1.6 6.4 0.00 0.00 0.00 57 1013.3
20260906110003 25 190 0.0 0.0 0.00 0.00 0.00 57 1013.4
20260906104600 25 190 0.0 0.0 0.00 0.00 0.00 56 1013.5
20260906103110 25 190 0.0 0.0 0.00 0.00 0.00 56 1013.5
20260906101558 25 190 0.0 4.8 0.00 0.00 0.00 56 1013.6
20260906100100 26 190 0.0 0.0 0.00 0.00 0.00 56 1013.6
20260906094553 26 190 0.0 0.0 0.00 0.00 0.00 56 1013.7
20260906093057 26 190 0.0 4.8 0.00 0.00 0.00 56 1013.8
20260906091549 26 190 0.0 0.0 0.00 0.00 0.00 56 1013.7
20260906090100 26 190 0.0 0.0 0.00 0.00 0.00 55 1013.7
20260906084549 26 190 0.0 0.0 0.00 0.00 0.00 53 1013.7
20260906083047 26 190 0.0 3.2 0.00 0.00 0.00 55 1013.6
20260906081552 26 190 0.0 0.0 0.00 0.00 0.00 55 1013.6
20260906080043 27 190 0.0 0.0 0.00 0.00 0.00 52 1013.4
20260906074541 27 190 0.0 0.0 0.00 0.00 0.00 51 1013.2
20260906073055 27 190 0.0 4.8 0.00 0.00 0.00 50 1013.3
20260906071538 27 190 6.4 16.1 0.00 0.00 0.00 47 1013.3
20260906070039 27 190 8.0 17.7 0.00 0.00 0.00 47 1013.1
20260906064535 27 190 9.7 17.7 0.00 0.00 0.00 47 1013.1
20260906063044 27 190 9.7 20.9 0.00 0.00 0.00 47 1013.1
20260906061530 27 190 9.7 22.5 0.00 0.00 0.00 47 1012.9
20260906060026 28 190 11.3 29.0 0.00 0.00 0.00 46 1012.8
20260906054522 28 190 11.3 24.1 0.00 0.00 0.00 45 1012.6
20260906053019 28 190 14.5 25.7 0.00 0.00 0.00 44 1012.5
20260906051529 28 190 12.9 24.1 0.00 0.00 0.00 44 1012.5
20260906050013 28 190 14.5 30.6 0.00 0.00 0.00 44 1012.4
20260906044513 29 190 12.9 25.7 0.00 0.00 0.00 43 1012.4
20260906043012 29 190 12.9 25.7 0.00 0.00 0.00 43 1012.4
20260906041512 30 190 11.3 32.2 0.00 0.00 0.00 43 1012.4
20260906040025 30 190 12.9 25.7 0.00 0.00 0.00 43 1012.3
20260906034510 30 190 9.7 27.4 0.00 0.00 0.00 42 1012.3
20260906033010 30 190 9.7 19.3 0.00 0.00 0.00 42 1012.2
20260906031512 30 190 6.4 16.1 0.00 0.00 0.00 41 1012.0
20260906030007 31 190 11.3 24.1 0.00 0.00 0.00 40 1011.9
20260906024507 31 190 6.4 19.3 0.00 0.00 0.00 39 1011.8
20260906023006 31 190 8.0 19.3 0.00 0.00 0.00 38 1011.3
20260906021506 31 190 8.0 17.7 0.00 0.00 0.00 38 1011.0
20260906020009 32 190 8.0 20.9 0.00 0.00 0.00 37 1010.6
20260906014505 32 190 8.0 17.7 0.00 0.00 0.00 36 1010.4
20260906013004 32 190 6.4 16.1 0.00 0.00 0.00 35 1010.2
20260906011503 33 190 8.0 20.9 0.00 0.00 0.00 35 1010.1
20260906010002 33 190 8.0 20.9 0.00 0.00 0.00 34 1010.0
20260906004501 34 190 9.7 22.5 0.00 0.00 0.00 34 1010.1
20260906003100 35 190 11.3 27.4 0.00 0.00 0.00 33 1010.1
20260906001557 35 190 8.0 19.3 0.00 0.00 0.00 32 1010.1
20260906000107 36 190 12.9 22.5 0.00 0.00 0.00 31 1009.9
20260905234619 37 190 11.3 24.1 0.00 0.00 0.00 31 1009.3
20260905233056 37 190 8.0 22.5 0.00 0.00 0.00 31 1009.1
20260905231604 36 190 6.4 22.5 0.00 0.00 0.00 32 1009.0
20260905224555 37 190 4.8 12.9 0.00 0.00 0.00 34 1009.1
20260905223056 37 190 8.0 17.7 0.00 0.00 0.00 31 1009.1
20260905221556 37 190 4.8 16.1 0.00 0.00 0.00 29 1009.0
20260905214550 38 190 6.4 20.9 0.00 0.00 0.00 28 1009.1
20260905213047 38 190 8.0 19.3 0.00 0.00 0.00 28 1009.2
20260905211543 38 190 11.3 22.5 0.00 0.00 0.00 28 1009.5